TOURFACTS.DK  
Stats and Facts from Tour de France.

Tour de France 2019 starts in 348 days
  Riders   Stages   Teams   Summits   Yearly  


 
Search by year

After 2018 - Stage 14:
 15000 starters.
  5163 different riders.
  639 teams.
  2246 stages.
  456 restdays.
  441957.60 km.
  5678 abandonnees.


Top 3
GC
Christopher Froome86:20:55
Rigoberto Urán86:21:49
Romain Bardet86:23:15
Climb
Warren Barguil169 pt.
Primoz Roglic80 pt.
Thomas De Gendt64 pt.
Sprint
Michael Matthews359 pt.
André Greipel234 pt.
Edvald Boasson Hagen220 pt.
Youth
Simon Yates86:27:09
Louis Meintjes86:29:15
Emanuel Buchmann86:54:16
Facts from Tour de France 1974
  |   Stages.  |   Stage winners.  |   Days in yellow  |   Average speed.  |   Route.  |   Teams.  |   All riders.  |   Rookies.  |  

  |   Withdrawls.  |   GC.  |   Polka  |   Green  |   White  |   Summits. (In tour)  |   Miscellaneous.  |  

Stage 21b on July 20th. 1974
         Owning:    Eddy Merckx    
Pick a stage:  Pro 1 2 3 4 5 6a 6b 7 8a 8b 9 10 11 12 13 14 15 16 17 18 19a 19b 20 21a 21b 22
From: Orléans    To: OrléansDist:37.50 km.

Average speed for all riders in stage:  42,718 km./hr.
    Place:Name:Team:Time:Km/h:
BELMichel PollentierBELCarpenter Confortluxe-Flandria00:48:23  +  00:00:00=46,504 
BELEddy MerckxITAMolteni00:48:33  +  00:00:10=46,344 
ESPJesus ManzanequeESPLa Casera-Peña Bahamontes00:48:50  +  00:00:27=46,075 
4 BELDirk BaertBELMic-De Gribaldy-Ludo00:48:50  +  00:00:27=46,075 
5 FRARaymond PoulidorFRAGan-Mercier-Hutchinson00:48:52  +  00:00:29=46,044 
6 PORJoaquim AgostinhoFRABic00:49:01  +  00:00:38=45,903 
7 BELJoseph BruyereITAMolteni00:49:04  +  00:00:41=45,856 
8 FRAJean-Pierre DanguillaumeFRAPeugeot-BP-Michelin00:49:25  +  00:01:02=45,531 
9 FRABernard LabourdetteFRABic00:50:13  +  00:01:50=44,806 
10 ESPMariano MartinezFRASonolor-Gitanes00:50:27  +  00:02:04=44,599 
11 FRAAlain SantyFRAGan-Mercier-Hutchinson00:50:30  +  00:02:07=44,554 
12 FRADaniel RebillardFRAMerlin Plage-Flandria00:50:36  +  00:02:13=44,466 
13 BELHerman Van SpringelBELMic-De Gribaldy-Ludo00:50:38  +  00:02:15=44,437 
14 NEDFedor Iwan Den HertogNLDFrisol-Flair Plastics00:50:41  +  00:02:18=44,393 
15 ITAWladimiro PanizzaITABrooklyn00:50:45  +  00:02:22=44,335 
16 BELWilfried WesemaelBELMic-De Gribaldy-Ludo00:50:49  +  00:02:26=44,277 
17 ITAFausto BertoglioITABrooklyn00:50:52  +  00:02:29=44,233 
18 ESPGonzalo AjaESPKas-Kaskol00:50:53  +  00:02:30=44,219 
19 FRARoger PingeonFRAJobo-Lejeune00:50:59  +  00:02:36=44,132 
20 ESPMiguel LasaESPKas-Kaskol00:51:01  +  00:02:38=44,103 
21 NEDGerrie KnetemannFRAGan-Mercier-Hutchinson00:51:05  +  00:02:42=44,046 
22 ESPVicente LopezESPKas-Kaskol00:51:09  +  00:02:46=43,988 
23 ESPJuan ZuranoESPLa Casera-Peña Bahamontes00:51:12  +  00:02:49=43,945 
24 BELNoël VancloosterBELMic-De Gribaldy-Ludo00:51:13  +  00:02:50=43,931 
25 BELEduard JanssensITAMolteni00:51:14  +  00:02:51=43,917 
26 FRABernard CroyetFRABic00:51:23  +  00:03:00=43,789 
27 BELWilly TeirlinckFRASonolor-Gitanes00:51:26  +  00:03:03=43,746 
28 ESPJosé PesarrodonaESPKas-Kaskol00:51:28  +  00:03:05=43,718 
29 FRAJean-Pierre GuillemotFRAJobo-Lejeune00:51:37  +  00:03:14=43,591 
30 FRAAlain VasseurFRABic00:51:37  +  00:03:14=43,591 
31 ITAAldo ParecchiniITABrooklyn00:51:43  +  00:03:20=43,506 
32 FRASylvain VasseurFRABic00:51:43  +  00:03:20=43,506 
33 NEDGerard VianenFRAGan-Mercier-Hutchinson00:51:44  +  00:03:21=43,492 
34 ENGBarry HobanFRAGan-Mercier-Hutchinson00:51:47  +  00:03:24=43,450 
35 FRAJean-Claude MisacFRAMerlin Plage-Flandria00:51:49  +  00:03:26=43,422 
36 FRARaymond DelisleFRAPeugeot-BP-Michelin00:51:51  +  00:03:28=43,394 
37 BELRonald De WitteBELCarpenter Confortluxe-Flandria00:51:51  +  00:03:28=43,394 
38 ESPCarlos MeleroESPKas-Kaskol00:51:52  +  00:03:29=43,380 
39 BELMarc DemeyerBELCarpenter Confortluxe-Flandria00:51:57  +  00:03:34=43,311 
40 FRAJosé CatieauFRABic00:52:00  +  00:03:37=43,269 
41 BELWilly Van NesteFRASonolor-Gitanes00:52:01  +  00:03:38=43,255 
42 FRAGuy SibilleFRAPeugeot-BP-Michelin00:52:14  +  00:03:51=43,076 
43 BELLucien Van ImpeFRASonolor-Gitanes00:52:17  +  00:03:54=43,035 
44 ESPAndré RomeroFRAJobo-Lejeune00:52:18  +  00:03:55=43,021 
45 ESPAndrês OlivaESPLa Casera-Peña Bahamontes00:52:18  +  00:03:55=43,021 
46 FRAJean-Pierre GenetFRAGan-Mercier-Hutchinson00:52:20  +  00:03:57=42,994 
47 FRAFerdinand JulienFRASonolor-Gitanes00:52:28  +  00:04:05=42,884 
48 FRARégis OvionFRAPeugeot-BP-Michelin00:52:29  +  00:04:06=42,871 
49 FRAMichel PerinFRAGan-Mercier-Hutchinson00:52:31  +  00:04:08=42,844 
50 FRAClaude MagniFRAJobo-Lejeune00:52:31  +  00:04:08=42,844 
51 BELJoseph SpruytITAMolteni00:52:37  +  00:04:14=42,762 
52 FRARobert MintkiewiczFRASonolor-Gitanes00:52:39  +  00:04:16=42,735 
53 BELAndré DierickxFRAMerlin Plage-Flandria00:52:40  +  00:04:17=42,722 
54 ITAGiancarlo BelliniITABrooklyn00:52:46  +  00:04:23=42,641 
55 BELJoseph HuysmansITAMolteni00:52:47  +  00:04:24=42,627 
56 BELJan Van De WieleBELMic-De Gribaldy-Ludo00:52:47  +  00:04:24=42,627 
57 BELGeorges PintensBELMic-De Gribaldy-Ludo00:52:48  +  00:04:25=42,614 
58 FRABernard BourreauFRAPeugeot-BP-Michelin00:52:50  +  00:04:27=42,587 
59 BELVictor Van SchilITAMolteni00:52:50  +  00:04:27=42,587 
60 FRAChristian RaymondFRAGan-Mercier-Hutchinson00:52:53  +  00:04:30=42,546 
61 FRAFrancis CampanerFRAJobo-Lejeune00:52:55  +  00:04:32=42,520 
62 FRAJoël MillardFRAMerlin Plage-Flandria00:52:58  +  00:04:35=42,480 
63 FRAChristian BlainFRAJobo-Lejeune00:52:58  +  00:04:35=42,480 
64 FRAJacques EsclassanFRAPeugeot-BP-Michelin00:52:58  +  00:04:35=42,480 
65 BELDaniel VerplanckeBELCarpenter Confortluxe-Flandria00:53:00  +  00:04:37=42,453 
66 FRACharly RouxelFRAPeugeot-BP-Michelin00:53:01  +  00:04:38=42,439 
67 BELMarc LievensITAMolteni00:53:06  +  00:04:43=42,373 
68 BELRonny VanmarckeBELMic-De Gribaldy-Ludo00:53:06  +  00:04:43=42,373 
69 ESPJosé AbilleiraESPLa Casera-Peña Bahamontes00:53:12  +  00:04:49=42,293 
70 FRAGerard MoneyronFRAMerlin Plage-Flandria00:53:14  +  00:04:51=42,267 
71 BELArthur Van de VyverBELCarpenter Confortluxe-Flandria00:53:20  +  00:04:57=42,188 
72 FRAJacques BotherelFRASonolor-Gitanes00:53:32  +  00:05:09=42,030 
73 BELFrans MintjensITAMolteni00:53:35  +  00:05:12=41,991 
74 BELJos De SchoenmaeckerITAMolteni00:53:37  +  00:05:14=41,965 
75 ITAValerio LualdiITABrooklyn00:53:39  +  00:05:16=41,938 
76 FRARaymond RiotteFRAPeugeot-BP-Michelin00:53:42  +  00:05:19=41,899 
77 NEDPiet Van KatwijkNLDFrisol-Flair Plastics00:53:42  +  00:05:19=41,899 
78 FRAJean-Jacques SanquerFRAMerlin Plage-Flandria00:53:51  +  00:05:28=41,783 
79 NEDWim PrinsenNLDFrisol-Flair Plastics00:53:54  +  00:05:31=41,744 
80 ESPDomingo PerurenaESPKas-Kaskol00:53:55  +  00:05:32=41,731 
81 FRARoland BerlandFRABic00:53:57  +  00:05:34=41,705 
82 COLAntonio MartosESPKas-Kaskol00:54:05  +  00:05:42=41,602 
83 BELPatrick SercuITABrooklyn00:54:06  +  00:05:43=41,590 
84 ESPAntonio MenendezESPKas-Kaskol00:54:10  +  00:05:47=41,538 
85 FRADaniel DucreuxFRAJobo-Lejeune00:54:20  +  00:05:57=41,411 
86 FRAAlain CiganaFRAJobo-Lejeune00:54:23  +  00:06:00=41,373 
87 FRAMichel CorollerFRAMerlin Plage-Flandria00:54:23  +  00:06:00=41,373 
88 BELGustaaf Van RoosbroeckBELMic-De Gribaldy-Ludo00:54:33  +  00:06:10=41,247 
89 ITALorenzo AlaimoNLDFrisol-Flair Plastics00:54:38  +  00:06:15=41,184 
90 ITAGianni Di LorenzoITABrooklyn00:54:47  +  00:06:24=41,071 
91 FRARegis DelepineFRAMerlin Plage-Flandria00:54:50  +  00:06:27=41,033 
92 FRAJacky MouriouxFRAGan-Mercier-Hutchinson00:54:56  +  00:06:33=40,959 
93 FRAAndré MolletFRAPeugeot-BP-Michelin00:55:02  +  00:06:39=40,884 
94 ENGMichael WrightFRASonolor-Gitanes00:55:10  +  00:06:47=40,785 
95 ESPDamaso TorresESPLa Casera-Peña Bahamontes00:55:19  +  00:06:56=40,675 
96 BELFrans Van LooyBELCarpenter Confortluxe-Flandria00:55:24  +  00:07:01=40,614 
97 BELLudo DelcroixITAMolteni00:55:29  +  00:07:06=40,553 
98 ESPFernando PlazaESPLa Casera-Peña Bahamontes00:55:36  +  00:07:13=40,468 
99 AUSDonald AllanNLDFrisol-Flair Plastics00:55:49  +  00:07:26=40,311 
100 NEDGerben KarstensFRABic00:55:57  +  00:07:34=40,214 
101 ESPLuis ZuberoESPKas-Kaskol00:55:57  +  00:07:34=40,214 
102 ITAArturo PecchielanITABrooklyn00:56:02  +  00:07:39=40,155 
103 FRAAlain NoguesFRASonolor-Gitanes00:56:11  +  00:07:48=40,047 
104 FRABernard MassonFRAJobo-Lejeune00:57:00  +  00:08:37=39,474 
105 NEDHenk PrinsenNLDFrisol-Flair Plastics00:59:02  +  00:10:39=38,114 


Todays birthdays.

1877  Antoine Perrichon
1878  Auguste Berthault
1911  Théo Herckenrath
1924  Carlo Lafranchi
1931  Armand Di Caro
1937  Jean-Claude Lebaube
1951  Giovanni Battaglin
1961  Pascal Jules
1962  Jean-Claude Leclercq
1976  Janek Tombak
1978  Francisco Pérez
1983  Dries Devenyns




Visits: